This is the latest recevied weather packets stored in our database for station/object KJ5IIV. If no packets are shown the sender has not sent any weather packets the latest 10 day(s).
| Time | Temp. | Humidity | Pressure | Rain* | Wind** | Luminosity | Snow |
|---|---|---|---|---|---|---|---|
| 1777689770 | 13.33° C | 91% | 1017.2 hPa | 0 mm | - | 0 W/m² | - |
| 1777689468 | 13.33° C | 90% | 1017.1 hPa | 0 mm | - | 0 W/m² | - |
| 1777689166 | 13.33° C | 90% | 1017.2 hPa | 0 mm | - | 0 W/m² | - |
| 1777688863 | 13.33° C | 90% | 1017.4 hPa | 0 mm | - | 0 W/m² | - |
| 1777688559 | 13.33° C | 90% | 1017.6 hPa | 0 mm | - | 0 W/m² | - |
| 1777688256 | 13.33° C | 90% | 1017.4 hPa | 0 mm | - | 0 W/m² | - |
| 1777687954 | 13.33° C | 90% | 1017.1 hPa | 0 mm | - | 0 W/m² | - |
| 1777687651 | 13.33° C | 90% | 1017.2 hPa | 0 mm | - | 0 W/m² | - |
| 1777687348 | 13.33° C | 89% | 1017.1 hPa | 0 mm | - | 0 W/m² | - |
| 1777687046 | 13.33° C | 88% | 1017.6 hPa | 0 mm | - | 0 W/m² | - |
| 1777686742 | 13.33° C | 87% | 1017.2 hPa | 0 mm | - | 0 W/m² | - |
| 1777686440 | 13.33° C | 85% | 1017.1 hPa | 0 mm | - | 0 W/m² | - |
| 1777686136 | 13.33° C | 85% | 1016.8 hPa | 0 mm | - | 0 W/m² | - |
| 1777685833 | 13.89° C | 86% | 1016.7 hPa | 0 mm | - | 0 W/m² | - |
| 1777685528 | 13.33° C | 85% | 1016.6 hPa | 0 mm | - | 0 W/m² | - |
| 1777685225 | 13.33° C | 87% | 1016.5 hPa | 0 mm | - | 0 W/m² | - |
| 1777684923 | 13.89° C | 85% | 1016.4 hPa | 0 mm | - | 0 W/m² | - |
| 1777684620 | 13.89° C | 85% | 1016.6 hPa | 0 mm | - | 0 W/m² | - |
| 1777684315 | 13.89° C | 83% | 1016.3 hPa | 0 mm | - | 0 W/m² | - |
| 1777684014 | 13.89° C | 80% | 1015.8 hPa | 0 mm | - | 1 W/m² | - |
| 1777683709 | 13.89° C | 81% | 1015.7 hPa | 0 mm | - | 2 W/m² | - |
| 1777683407 | 14.44° C | 80% | 1015.7 hPa | 0 mm | - | 3 W/m² | - |
| 1777683104 | 14.44° C | 81% | 1016.3 hPa | 0 mm | - | 2 W/m² | - |
| 1777682801 | 14.44° C | 81% | 1016.1 hPa | 0 mm | - | 4 W/m² | - |
| 1777682497 | 14.44° C | 83% | 1016 hPa | 0 mm | - | 6 W/m² | - |
* Rain latest hour (hover to see other rain measurements)
** Current wind speed in m/s (hover to see current wind gust speed)